NAO YSCB-YSSY

Flight info

Callsign NAO
Flight time 0h 38m
Altitude 15000
Route CB W122 AKMIR W113 ODALE
Aircraft B350/L-SDFGRW/S

Departure

Time 2026-05-07 00:41
Airport Canberra Airport (YSCB)

Arrival

Time 2026-05-07 01:20
Airport Sydney Kingsford Smith International Airport (YSSY)
Time Latitude Longitude Altitude Speed Heading
2026-05-06 23:11 -35.30430 149.18792 1867 ft 0 kts 311°
2026-05-07 00:34 -35.30429 149.18791 1867 ft 0 kts 311°
2026-05-07 00:34 -35.30428 149.18789 1867 ft 1 kts 312°
2026-05-07 00:34 -35.30417 149.18771 1866 ft 5 kts 288°
2026-05-07 00:35 -35.30440 149.18732 1864 ft 7 kts 218°
2026-05-07 00:35 -35.30478 149.18755 1865 ft 9 kts 126°
2026-05-07 00:35 -35.30458 149.18812 1867 ft 8 kts 63°
2026-05-07 00:35 -35.30442 149.18880 1870 ft 9 kts 111°
2026-05-07 00:36 -35.30484 149.18941 1872 ft 10 kts 128°
2026-05-07 00:36 -35.30529 149.19007 1876 ft 10 kts 131°
2026-05-07 00:36 -35.30574 149.19071 1879 ft 10 kts 129°
2026-05-07 00:36 -35.30622 149.19144 1881 ft 12 kts 130°
2026-05-07 00:37 -35.30687 149.19223 1875 ft 14 kts 152°
2026-05-07 00:37 -35.30780 149.19240 1883 ft 13 kts 179°
2026-05-07 00:37 -35.30868 149.19240 1882 ft 13 kts 181°
2026-05-07 00:37 -35.30956 149.19240 1880 ft 12 kts 181°
2026-05-07 00:38 -35.31041 149.19239 1878 ft 12 kts 180°
2026-05-07 00:38 -35.31125 149.19240 1877 ft 12 kts 180°
2026-05-07 00:38 -35.31207 149.19240 1875 ft 12 kts 179°
2026-05-07 00:38 -35.31290 149.19239 1873 ft 12 kts 179°
2026-05-07 00:39 -35.31377 149.19241 1872 ft 12 kts 174°
2026-05-07 00:39 -35.31449 149.19285 1871 ft 11 kts 133°
2026-05-07 00:39 -35.31469 149.19366 1872 ft 10 kts 91°
2026-05-07 00:39 -35.31455 149.19441 1873 ft 7 kts 19°
2026-05-07 00:40 -35.31434 149.19444 1873 ft 0 kts 359°
2026-05-07 00:40 -35.31409 149.19444 1873 ft 27 kts 359°
2026-05-07 00:40 -35.30913 149.19442 1881 ft 108 kts
2026-05-07 00:41 -35.29991 149.19422 1967 ft 150 kts 358°
2026-05-07 00:41 -35.28866 149.19441 2324 ft 173 kts 360°
2026-05-07 00:41 -35.28043 149.19556 2565 ft 185 kts
2026-05-07 00:41 -35.26242 149.19786 3128 ft 203 kts 359°
2026-05-07 00:42 -35.25297 149.19900 3402 ft 210 kts
2026-05-07 00:42 -35.23876 149.20536 3804 ft 229 kts 31°
2026-05-07 00:42 -35.22657 149.21852 4189 ft 237 kts 41°
2026-05-07 00:42 -35.21452 149.23249 4587 ft 241 kts 39°
2026-05-07 00:43 -35.20173 149.24590 4986 ft 244 kts 37°
2026-05-07 00:43 -35.18871 149.25930 5378 ft 246 kts 38°
2026-05-07 00:43 -35.17563 149.27297 5778 ft 249 kts 39°
2026-05-07 00:43 -35.16235 149.28687 6181 ft 253 kts 39°
2026-05-07 00:44 -35.14890 149.30095 6576 ft 256 kts 39°
2026-05-07 00:44 -35.13535 149.31507 6954 ft 257 kts 39°
2026-05-07 00:44 -35.12089 149.32789 7342 ft 257 kts 31°
2026-05-07 00:44 -35.10597 149.34016 7730 ft 259 kts 32°
2026-05-07 00:45 -35.09125 149.35252 8122 ft 261 kts 32°
2026-05-07 00:45 -35.07626 149.36513 8522 ft 263 kts 32°
2026-05-07 00:45 -35.06115 149.37777 8923 ft 264 kts 32°
2026-05-07 00:45 -35.04600 149.39045 9336 ft 265 kts 32°
2026-05-07 00:46 -35.03073 149.40322 9742 ft 267 kts 31°
2026-05-07 00:46 -35.01538 149.41605 10148 ft 268 kts 31°
2026-05-07 00:46 -34.99993 149.42895 10526 ft 270 kts 31°
2026-05-07 00:46 -34.98437 149.44195 10908 ft 272 kts 31°
2026-05-07 00:47 -34.96873 149.45502 11292 ft 271 kts 31°
2026-05-07 00:47 -34.95324 149.46795 11685 ft 268 kts 31°
2026-05-07 00:47 -34.93794 149.48070 12074 ft 266 kts 30°
2026-05-07 00:47 -34.92277 149.49334 12466 ft 263 kts 30°
2026-05-07 00:48 -34.90767 149.50593 12868 ft 262 kts 30°
2026-05-07 00:48 -34.89266 149.51842 13271 ft 261 kts 30°
2026-05-07 00:48 -34.87769 149.53089 13684 ft 260 kts 29°
2026-05-07 00:48 -34.86281 149.54327 14072 ft 259 kts 29°
2026-05-07 00:49 -34.84815 149.55546 14440 ft 258 kts 28°
2026-05-07 00:49 -34.83331 149.56779 14813 ft 257 kts 27°
2026-05-07 00:49 -34.81848 149.58011 15104 ft 261 kts 27°
2026-05-07 00:49 -34.80300 149.59287 15105 ft 275 kts 27°
2026-05-07 00:50 -34.78697 149.60620 15103 ft 283 kts 27°
2026-05-07 00:50 -34.77053 149.61989 15115 ft 288 kts 27°
2026-05-07 00:50 -34.75385 149.63373 15111 ft 292 kts 27°
2026-05-07 00:50 -34.73695 149.64776 15114 ft 296 kts 27°
2026-05-07 00:51 -34.71987 149.66189 15123 ft 298 kts 27°
2026-05-07 00:51 -34.70269 149.67613 15116 ft 299 kts 26°
2026-05-07 00:51 -34.68545 149.69041 15121 ft 300 kts 26°
2026-05-07 00:51 -34.66813 149.70472 15122 ft 301 kts 26°
2026-05-07 00:52 -34.65085 149.71904 15119 ft 301 kts 26°
2026-05-07 00:52 -34.63375 149.73318 15120 ft 301 kts 26°
2026-05-07 00:52 -34.61645 149.74744 15118 ft 300 kts 26°
2026-05-07 00:52 -34.59915 149.76174 15115 ft 301 kts 25°
2026-05-07 00:53 -34.58186 149.77599 15114 ft 300 kts 25°
2026-05-07 00:53 -34.56455 149.79027 15110 ft 300 kts 25°
2026-05-07 00:53 -34.54729 149.80452 15107 ft 300 kts 25°
2026-05-07 00:53 -34.53003 149.81873 15105 ft 299 kts 25°
2026-05-07 00:54 -34.51285 149.83289 15101 ft 298 kts 25°
2026-05-07 00:54 -34.49571 149.84698 15100 ft 297 kts 24°
2026-05-07 00:54 -34.47856 149.86109 15101 ft 297 kts 24°
2026-05-07 00:54 -34.46168 149.87495 15098 ft 297 kts 24°
2026-05-07 00:55 -34.44463 149.88899 15093 ft 296 kts 24°
2026-05-07 00:55 -34.42759 149.90297 15090 ft 295 kts 24°
2026-05-07 00:55 -34.41060 149.91693 15095 ft 294 kts 24°
2026-05-07 00:55 -34.39367 149.93085 15087 ft 294 kts 23°
2026-05-07 00:56 -34.37670 149.94473 15089 ft 294 kts 23°
2026-05-07 00:56 -34.35977 149.95862 15090 ft 293 kts 23°
2026-05-07 00:56 -34.34289 149.97245 15087 ft 293 kts 22°
2026-05-07 00:56 -34.32599 149.98626 15082 ft 293 kts 22°
2026-05-07 00:57 -34.30929 149.99996 15085 ft 293 kts 22°
2026-05-07 00:57 -34.29242 150.01376 15087 ft 292 kts 22°
2026-05-07 00:57 -34.27554 150.02754 15084 ft 293 kts 22°
2026-05-07 00:57 -34.25867 150.04138 15077 ft 293 kts 21°
2026-05-07 00:58 -34.24182 150.05512 15073 ft 292 kts 21°
2026-05-07 00:58 -34.22505 150.06881 15076 ft 291 kts 21°
2026-05-07 00:58 -34.20833 150.08249 15074 ft 290 kts 21°
2026-05-07 00:58 -34.19195 150.09704 15074 ft 299 kts 30°
2026-05-07 00:59 -34.16799 150.14058 15068 ft 327 kts 61°
2026-05-07 00:59 -34.16255 150.16764 15065 ft 335 kts 75°
2026-05-07 00:59 -34.15947 150.19552 15067 ft 333 kts 73°
2026-05-07 01:00 -34.15457 150.22254 15063 ft 326 kts 65°
2026-05-07 01:00 -34.14793 150.24860 15061 ft 323 kts 63°
2026-05-07 01:00 -34.14182 150.27482 15056 ft 325 kts 66°
2026-05-07 01:00 -34.13638 150.30148 14920 ft 329 kts 67°
2026-05-07 01:01 -34.13065 150.32846 14533 ft 335 kts 66°
2026-05-07 01:01 -34.12460 150.35563 14098 ft 342 kts 67°
2026-05-07 01:01 -34.11845 150.38362 13625 ft 347 kts 68°
2026-05-07 01:01 -34.11238 150.41189 13144 ft 348 kts 69°
2026-05-07 01:02 -34.10634 150.43986 12680 ft 340 kts 68°
2026-05-07 01:02 -34.10029 150.46723 12241 ft 336 kts 69°
2026-05-07 01:02 -34.09467 150.49298 11817 ft 334 kts 69°
2026-05-07 01:02 -34.08870 150.52007 11377 ft 333 kts 70°
2026-05-07 01:03 -34.08285 150.54704 10943 ft 331 kts 71°
2026-05-07 01:03 -34.07718 150.57389 10497 ft 330 kts 72°
2026-05-07 01:03 -34.07142 150.60068 10056 ft 329 kts 72°
2026-05-07 01:03 -34.06564 150.62741 9593 ft 328 kts 73°
2026-05-07 01:04 -34.06002 150.65359 9156 ft 325 kts 73°
2026-05-07 01:04 -34.05432 150.67990 8727 ft 322 kts 73°
2026-05-07 01:04 -34.04890 150.70510 8316 ft 314 kts 74°
2026-05-07 01:04 -34.04352 150.73005 7911 ft 301 kts 74°
2026-05-07 01:05 -34.03832 150.75403 7520 ft 290 kts 74°
2026-05-07 01:05 -34.03329 150.77715 7135 ft 281 kts 75°
2026-05-07 01:05 -34.02876 150.79942 7024 ft 263 kts 82°
2026-05-07 01:05 -34.02692 150.82058 7011 ft 245 kts 87°
2026-05-07 01:06 -34.02564 150.84036 7003 ft 230 kts 88°
2026-05-07 01:06 -34.02444 150.85935 6869 ft 225 kts 88°
2026-05-07 01:06 -34.02325 150.87810 6728 ft 222 kts 88°
2026-05-07 01:06 -34.02199 150.89654 6588 ft 219 kts 88°
2026-05-07 01:07 -34.02072 150.91445 6450 ft 217 kts 88°
2026-05-07 01:07 -34.01941 150.93247 6314 ft 215 kts 88°
2026-05-07 01:07 -34.01813 150.95037 6170 ft 214 kts 88°
2026-05-07 01:07 -34.01686 150.96822 6024 ft 213 kts 88°
2026-05-07 01:08 -34.01565 150.98597 5888 ft 212 kts 88°
2026-05-07 01:08 -34.01450 151.00362 5747 ft 210 kts 88°
2026-05-07 01:08 -34.01339 151.02120 5612 ft 209 kts 88°
2026-05-07 01:08 -34.01231 151.03861 5479 ft 208 kts 87°
2026-05-07 01:09 -34.01132 151.05599 5342 ft 207 kts 88°
2026-05-07 01:09 -34.01037 151.07345 5108 ft 210 kts 88°
2026-05-07 01:09 -34.00948 151.09106 4854 ft 211 kts 88°
2026-05-07 01:09 -34.00864 151.10885 4603 ft 215 kts 88°
2026-05-07 01:10 -34.00776 151.12694 4339 ft 217 kts 88°
2026-05-07 01:10 -34.00695 151.14516 4081 ft 218 kts 88°
2026-05-07 01:10 -34.00620 151.16315 3835 ft 217 kts 88°
2026-05-07 01:10 -34.00548 151.18134 3583 ft 216 kts 88°
2026-05-07 01:11 -34.00358 151.19916 3326 ft 214 kts 75°
2026-05-07 01:11 -33.99990 151.21647 3076 ft 212 kts 74°
2026-05-07 01:11 -33.99615 151.23334 3003 ft 202 kts 74°
2026-05-07 01:11 -33.99256 151.24942 3000 ft 197 kts 73°
2026-05-07 01:12 -33.98903 151.26513 2986 ft 192 kts 73°
2026-05-07 01:12 -33.98559 151.28052 2984 ft 189 kts 74°
2026-05-07 01:12 -33.98221 151.29572 2988 ft 186 kts 74°
2026-05-07 01:12 -33.97881 151.31072 2988 ft 184 kts 74°
2026-05-07 01:13 -33.97541 151.32532 2987 ft 182 kts 74°
2026-05-07 01:13 -33.97200 151.33998 2989 ft 181 kts 73°
2026-05-07 01:13 -33.96867 151.35459 2989 ft 180 kts 74°
2026-05-07 01:13 -33.96533 151.36916 2991 ft 180 kts 73°
2026-05-07 01:14 -33.96164 151.38349 2989 ft 178 kts 58°
2026-05-07 01:14 -33.95286 151.39246 3002 ft 160 kts
2026-05-07 01:14 -33.94242 151.39258 3010 ft 148 kts 343°
2026-05-07 01:14 -33.93165 151.39146 3008 ft 165 kts 344°
2026-05-07 01:15 -33.91969 151.38989 3014 ft 179 kts 344°
2026-05-07 01:15 -33.90768 151.38659 3012 ft 176 kts 321°
2026-05-07 01:15 -33.89971 151.37615 3008 ft 170 kts 295°
2026-05-07 01:15 -33.89711 151.36277 2991 ft 168 kts 259°
2026-05-07 01:16 -33.90020 151.34871 2774 ft 180 kts 255°
2026-05-07 01:16 -33.90356 151.33372 2522 ft 191 kts 253°
2026-05-07 01:16 -33.90742 151.31810 2256 ft 197 kts 254°
2026-05-07 01:16 -33.91099 151.30236 1986 ft 189 kts 255°
2026-05-07 01:17 -33.91454 151.28777 1734 ft 174 kts 254°
2026-05-07 01:17 -33.91765 151.27419 1499 ft 163 kts 254°
2026-05-07 01:17 -33.92071 151.26146 1281 ft 152 kts 254°
2026-05-07 01:17 -33.92347 151.24971 1083 ft 139 kts 253°
2026-05-07 01:18 -33.92588 151.23951 904 ft 117 kts 255°
2026-05-07 01:18 -33.92801 151.23046 752 ft 109 kts 256°
2026-05-07 01:18 -33.92996 151.22206 607 ft 99 kts 255°
2026-05-07 01:18 -33.93178 151.21430 476 ft 93 kts 253°
2026-05-07 01:19 -33.93344 151.20718 363 ft 87 kts 253°
2026-05-07 01:19 -33.93511 151.20035 239 ft 83 kts 252°
2026-05-07 01:19 -33.93678 151.19296 145 ft 99 kts 255°
2026-05-07 01:19 -33.93868 151.18501 40 ft 92 kts 253°
2026-05-07 01:20 -33.93986 151.18001 27 ft 12 kts 255°
2026-05-07 01:20 -33.94013 151.17883 25 ft 14 kts 254°
2026-05-07 01:20 -33.94001 151.17808 27 ft 8 kts 337°
2026-05-07 01:20 -33.93934 151.17787 26 ft 11 kts 347°
2026-05-07 01:21 -33.93858 151.17776 26 ft 12 kts 20°
2026-05-07 01:21 -33.93818 151.17867 26 ft 14 kts 75°
2026-05-07 01:21 -33.93790 151.17988 26 ft 16 kts 73°
2026-05-07 01:21 -33.93756 151.18128 26 ft 18 kts 74°
2026-05-07 01:22 -33.93720 151.18284 26 ft 20 kts 73°
2026-05-07 01:22 -33.93677 151.18453 26 ft 22 kts 73°
2026-05-07 01:22 -33.93632 151.18629 26 ft 22 kts 72°
2026-05-07 01:22 -33.93602 151.18777 26 ft 12 kts 76°
2026-05-07 01:23 -33.93558 151.18841 28 ft 9 kts
2026-05-07 01:23 -33.93499 151.18854 26 ft 7 kts 12°
2026-05-07 01:23 -33.93465 151.18861 26 ft 4 kts 11°
2026-05-07 01:23 -33.93440 151.18861 26 ft 3 kts 341°
2026-05-07 01:24 -33.93435 151.18861 26 ft 3 kts 302°
2026-05-07 01:24 -33.93428 151.18824 26 ft 6 kts 278°
2026-05-07 01:24 -33.93425 151.18791 26 ft 0 kts 245°
2026-05-07 01:24 -33.93436 151.18785 26 ft 4 kts 189°
2026-05-07 01:25 -33.93452 151.18782 26 ft 0 kts 189°